EW1944 Weather Reports


time (UTC)temp
C
wind
direction
speed
KPH
gust
KPH
rain 1hr
cm
rain 24hr
cm
rain mn
cm
humidity
%
barometer
mb
20260906203032 27 1 0.0 6.4 0.00 0.00 0.00 49 1018.9
20260906201543 27 128 0.0 4.8 0.00 0.00 0.00 42 1019.0
20260906200022 27 27 0.0 8.0 0.00 0.00 0.00 40 1019.2
20260906194608 26 11 0.0 6.4 0.00 0.00 0.00 45 1019.3
20260906194502 26 37 3.2 6.4 0.00 0.00 0.00 42 1019.4
20260906193037 27 136 1.6 6.4 0.00 0.00 0.00 44 1019.6
20260906191516 26 270 1.6 8.0 0.00 0.00 0.00 44 1019.9
20260906190129 27 286 3.2 8.0 0.00 0.00 0.00 40 1019.8
20260906184550 26 233 0.0 4.8 0.00 0.00 0.00 44 1020.1
20260906183043 27 199 3.2 6.4 0.00 0.00 0.00 39 1020.1
20260906181520 27 149 1.6 9.7 0.00 0.00 0.00 42 1020.2
20260906180051 27 300 0.0 4.8 0.00 0.00 0.00 47 1020.2
20260906174539 27 190 1.6 9.7 0.00 0.00 0.00 46 1020.2
20260906173034 26 176 1.6 8.0 0.00 0.00 0.00 47 1020.3
20260906171514 26 134 0.0 9.7 0.00 0.00 0.00 47 1020.3
20260906170047 25 66 0.0 12.9 0.00 0.00 0.00 54 1020.4
20260906164529 25 17 0.0 6.4 0.00 0.00 0.00 58 1020.7
20260906163007 23 146 0.0 4.8 0.00 0.00 0.00 52 1020.7
20260906161546 22 249 1.6 4.8 0.00 0.00 0.00 63 1020.7
20260906160021 21 17 0.0 4.8 0.00 0.00 0.00 67 1020.6
20260906154604 20 359 1.6 4.8 0.00 0.00 0.00 70 1020.9
20260906154501 20 172 1.6 4.8 0.00 0.00 0.00 70 1020.9
20260906153038 19 153 0.0 3.2 0.00 0.00 0.00 77 1020.9
20260906151517 18 259 0.0 1.6 0.00 0.00 0.00 84 1021.0
20260906150056 17 238 1.6 3.2 0.00 0.00 0.00 85 1020.9
20260906144531 16 194 0.0 4.8 0.00 0.00 0.00 92 1020.9
20260906143016 15 175 1.6 3.2 0.00 0.00 0.00 98 1020.9
20260906141545 14 265 1.6 3.2 0.00 0.00 0.00 98 1020.9
20260906140040 13 28 0.0 0.0 0.00 0.00 0.00 98 1021.0
20260906134513 13 28 0.0 0.0 0.00 0.00 0.00 98 1020.8
20260906133107 13 28 0.0 0.0 0.00 0.00 0.00 98 1020.8
20260906131536 12 28 0.0 0.0 0.00 0.00 0.00 97 1020.7
20260906130011 11 28 0.0 0.0 0.00 0.00 0.00 98 1020.6
20260906124550 10 28 0.0 0.0 0.00 0.00 0.00 97 1020.6
20260906123040 8 28 0.0 0.0 0.00 0.00 0.00 97 1020.7
20260906121536 8 28 0.0 0.0 0.00 0.00 0.00 96 1020.7
20260906120015 8 28 0.0 0.0 0.00 0.00 0.00 96 1020.6
20260906114551 7 28 0.0 0.0 0.00 0.00 0.00 96 1020.4
20260906113038 7 28 0.0 0.0 0.00 0.00 0.00 96 1020.3
20260906111511 7 28 0.0 0.0 0.00 0.00 0.00 96 1020.0
20260906110006 8 28 0.0 0.0 0.00 0.00 0.00 96 1019.9
20260906104555 8 28 0.0 0.0 0.00 0.00 0.00 96 1019.8
20260906103035 8 28 0.0 0.0 0.00 0.00 0.00 96 1019.8
20260906101511 8 28 0.0 0.0 0.00 0.00 0.00 96 1019.8
20260906100050 8 28 0.0 0.0 0.00 0.00 0.00 96 1019.9
20260906094553 8 28 0.0 0.0 0.00 0.00 0.00 96 1019.9
20260906093043 8 28 0.0 0.0 0.00 0.00 0.00 95 1019.9
20260906091507 8 28 0.0 0.0 0.00 0.00 0.00 95 1019.8
20260906090108 8 28 0.0 0.0 0.00 0.00 0.00 96 1019.8
20260906084520 8 28 0.0 0.0 0.00 0.00 0.00 96 1019.8
20260906083014 8 28 0.0 0.0 0.00 0.00 0.00 95 1019.6
20260906081549 8 28 0.0 0.0 0.00 0.00 0.00 95 1019.6
20260906080028 8 28 0.0 0.0 0.00 0.00 0.00 95 1019.4
20260906074514 9 28 0.0 0.0 0.00 0.00 0.00 95 1019.6
20260906073048 9 28 0.0 0.0 0.00 0.00 0.00 95 1019.6
20260906071537 9 28 0.0 0.0 0.00 0.00 0.00 95 1019.6
20260906070016 9 28 0.0 0.0 0.00 0.00 0.00 95 1019.4
20260906064550 9 28 0.0 0.0 0.00 0.00 0.00 95 1019.3
20260906063030 10 28 0.0 0.0 0.00 0.00 0.00 95 1019.3
20260906061521 10 28 0.0 0.0 0.00 0.00 0.00 95 1019.3
20260906060014 10 28 0.0 0.0 0.00 0.00 0.00 95 1019.2
20260906054601 10 28 0.0 0.0 0.00 0.00 0.00 94 1019.2
20260906053028 10 28 0.0 0.0 0.00 0.00 0.00 94 1019.2
20260906051508 10 28 0.0 0.0 0.00 0.00 0.00 94 1018.8
20260906050043 10 28 0.0 0.0 0.00 0.00 0.00 94 1018.8
20260906044532 11 28 0.0 0.0 0.00 0.00 0.00 94 1019.0
20260906043020 11 28 0.0 0.0 0.00 0.00 0.00 94 1018.9
20260906041557 11 28 0.0 0.0 0.00 0.00 0.00 94 1018.6
20260906040035 11 28 0.0 0.0 0.00 0.00 0.00 93 1018.4
20260906034541 11 28 0.0 0.0 0.00 0.00 0.00 93 1018.3
20260906033013 12 28 0.0 0.0 0.00 0.00 0.00 93 1018.4
20260906031547 12 28 0.0 0.0 0.00 0.00 0.00 93 1018.5
20260906030035 12 28 0.0 0.0 0.00 0.00 0.00 93 1018.4
20260906024532 12 28 0.0 0.0 0.00 0.00 0.00 92 1018.2
20260906023033 13 28 0.0 0.0 0.00 0.00 0.00 92 1018.2
20260906021511 13 28 0.0 0.0 0.00 0.00 0.00 91 1018.0
20260906020045 13 28 0.0 0.0 0.00 0.00 0.00 91 1017.8
20260906014539 14 28 0.0 0.0 0.00 0.00 0.00 90 1017.7
20260906013026 14 28 0.0 0.0 0.00 0.00 0.00 90 1017.7
20260906011510 15 28 0.0 0.0 0.00 0.00 0.00 89 1017.7
20260906010108 15 28 0.0 0.0 0.00 0.00 0.00 87 1017.7
20260906004524 16 28 0.0 0.0 0.00 0.00 0.00 84 1017.6
20260906003004 17 28 0.0 1.6 0.00 0.00 0.00 84 1017.7
20260906001605 17 28 0.0 1.6 0.00 0.00 0.00 83 1017.6
20260906000036 18 22 0.0 1.6 0.00 0.00 0.00 81 1017.6
20260905234511 18 28 0.0 4.8 0.00 0.00 0.00 80 1017.7
20260905233050 19 28 0.0 4.8 0.00 0.00 0.00 77 1017.7
20260905231547 19 26 1.6 6.4 0.00 0.00 0.00 75 1017.8
20260905230048 20 5 1.6 8.0 0.00 0.00 0.00 73 1017.8
20260905224531 20 18 1.6 11.3 0.00 0.00 0.00 72 1017.8
20260905223056 21 33 0.0 11.3 0.00 0.00 0.00 73 1017.7
20260905221549 21 25 1.6 8.0 0.00 0.00 0.00 70 1017.6
20260905220040 21 19 1.6 6.4 0.00 0.00 0.00 68 1017.6
20260905214520 22 359 1.6 11.3 0.00 0.00 0.00 68 1017.5
20260905213057 22 7 3.2 12.9 0.00 0.00 0.00 65 1017.5
20260905213002 22 22 3.2 12.9 0.00 0.00 0.00 66 1017.5
20260905211542 22 2 3.2 12.9 0.00 0.00 0.00 64 1017.4
20260905210036 22 46 3.2 14.5 0.00 0.00 0.00 67 1017.2
20260905204524 22 337 1.6 12.9 0.00 0.00 0.00 63 1017.3